User: anonymous   Login
Location: Unspecified
(0.0000°N, 0.0000°E)
Time: 00:43:00
(UTC+00:00)
Language:

Milstar DFS 2 - Orbit

View from above orbital plane
View from above orbital plane
View from above satellite
View from above satellite

Ground track
Ground track

The orbit data is extracted from the following two-line orbital elements,

1 23712U 95060A   18344.09966462 -.00000199 +00000-0 +00000-0 0  9997
2 23712 012.8942 024.6976 0002914 243.7397 116.2120 01.00271033005384
Epoch (UTC): 10 December 2018 02:23:31
Eccentricity: 0.0002914
inclination: 12.8942°
perigee height: 35774 km
apogee height: 35799 km
right ascension of ascending node: 24.6976°
argument of perigee: 243.7397°
revolutions per day: 1.00271033
mean anomaly at epoch: 116.2120°
orbit number at epoch: 538

The dashed part of the orbit path shows where the satellite is in the earth's shadow,  

DLR